EW8275 Weather Reports


Display with metric or nautical units.
time (UTC)temp
F
wind
direction
speed
MPH
gust
MPH
rain 1hr
in
rain 24hr
in
rain mn
in
humidity
%
barometer
mb
20260903100616 70 227 5.0 14.0 0.00 0.28 0.05 83 1015.3
20260903100125 71 257 6.0 14.0 0.00 0.28 0.05 83 1015.2
20260903095613 71 198 5.0 11.0 0.00 0.28 0.05 84 1015.2
20260903095151 71 71 4.0 10.0 0.00 0.28 0.05 86 1015.2
20260903094631 70 211 4.0 13.0 0.00 0.28 0.05 87 1015.3
20260903094124 69 246 5.0 13.0 0.00 0.28 0.05 86 1015.2
20260903093622 69 238 6.0 12.0 0.00 0.28 0.05 87 1015.1
20260903093107 69 302 4.0 13.0 0.00 0.28 0.05 87 1015.0
20260903092639 69 218 6.0 13.0 0.00 0.28 0.05 87 1014.9
20260903092143 69 261 3.0 13.0 0.00 0.28 0.05 89 1014.9
20260903091626 69 171 3.0 13.0 0.00 0.28 0.05 89 1015.0
20260903091136 69 227 2.0 12.0 0.00 0.28 0.05 89 1015.1
20260903090638 69 184 5.0 9.0 0.00 0.28 0.05 89 1015.2
20260903090110 68 267 2.0 9.0 0.00 0.28 0.05 91 1014.9
20260903085639 68 336 3.0 7.0 0.00 0.28 0.05 91 1014.9
20260903085117 68 187 3.0 11.0 0.00 0.28 0.05 91 1014.9
20260903084628 68 215 4.0 12.0 0.00 0.28 0.05 91 1015.0
20260903084139 68 217 4.0 12.0 0.00 0.28 0.05 92 1014.7
20260903083647 68 248 4.0 10.0 0.00 0.28 0.05 93 1014.6
20260903083140 68 196 4.0 12.0 0.00 0.28 0.05 93 1014.6
20260903082618 68 148 4.0 12.0 0.00 0.28 0.05 93 1014.4
20260903082125 67 219 5.0 13.0 0.00 0.28 0.05 94 1014.5
20260903081628 67 261 5.0 13.0 0.00 0.28 0.05 94 1014.5
20260903081116 67 228 6.0 13.0 0.00 0.28 0.05 94 1014.6
20260903080638 67 277 3.0 11.0 0.00 0.28 0.05 95 1014.7
20260903080201 67 238 3.0 12.0 0.00 0.28 0.05 95 1014.6
20260903075636 67 222 4.0 10.0 0.00 0.28 0.05 95 1014.5
20260903075124 66 240 4.0 7.0 0.00 0.28 0.05 95 1014.6
20260903074636 66 195 2.0 10.0 0.00 0.28 0.05 95 1014.5
20260903074116 66 217 4.0 10.0 0.04 0.28 0.05 95 1014.6
20260903073628 66 203 4.0 10.0 0.04 0.28 0.05 95 1014.7
20260903073110 66 210 3.0 8.0 0.04 0.28 0.05 95 1014.8
20260903072619 66 311 3.0 9.0 0.04 0.28 0.05 95 1014.8
20260903072114 66 223 3.0 9.0 0.04 0.28 0.05 95 1014.5
20260903071619 66 293 3.0 6.0 0.04 0.28 0.05 95 1014.7
20260903071125 66 220 2.0 7.0 0.08 0.28 0.05 95 1014.6
20260903070616 65 221 3.0 10.0 0.08 0.28 0.05 95 1014.6
20260903070120 65 229 4.0 10.0 0.08 0.28 0.05 95 1014.8
20260903065706 65 217 3.0 9.0 0.08 0.28 0.05 95 1014.8
20260903065117 65 234 5.0 10.0 0.08 0.28 0.05 95 1014.7
20260903064624 65 223 4.0 10.0 0.08 0.24 0.04 95 1014.7
20260903064133 65 164 5.0 10.0 0.16 0.24 0.04 95 1014.6
20260903063613 65 219 5.0 10.0 0.16 0.24 0.04 95 1014.6
20260903063120 65 299 5.0 13.0 0.16 0.24 0.04 95 1014.6
20260903062612 65 189 6.0 13.0 0.20 0.24 0.04 95 1014.6
20260903062111 65 188 4.0 11.0 0.20 0.24 0.04 95 1014.6
20260903061613 65 198 3.0 9.0 0.20 0.24 0.04 94 1014.6
20260903061125 65 200 5.0 9.0 0.16 0.20 0.03 94 1014.5
20260903060616 65 192 4.0 8.0 0.16 0.20 0.03 94 1014.5
20260903060119 65 244 4.0 9.0 0.16 0.20 0.03 94 1014.5
20260903055637 65 233 3.0 9.0 0.16 0.20 0.03 94 1014.4
20260903055140 65 207 4.0 10.0 0.16 0.20 0.03 94 1014.4
20260903054629 65 122 4.0 11.0 0.12 0.16 0.02 93 1014.5
20260903054116 65 207 3.0 11.0 0.04 0.08 0.01 93 1014.5
20260903053619 65 192 5.0 11.0 0.04 0.08 0.01 93 1014.5
20260903053107 65 202 3.0 9.0 0.04 0.08 0.01 93 1014.4
20260903052623 65 211 5.0 9.0 0.00 0.04 0.00 93 1014.5
20260903052116 65 161 2.0 8.0 0.00 0.04 0.00 93 1014.5
20260903051624 64 202 2.0 8.0 0.00 0.04 0.00 92 1014.5
20260903051120 64 232 4.0 8.0 0.00 0.04 0.00 93 1014.5
20260903050625 64 257 5.0 8.0 0.00 0.04 0.00 92 1014.4
20260903050113 64 248 3.0 9.0 0.00 0.04 0.00 92 1014.4
20260903045627 64 218 5.0 9.0 0.00 0.04 0.00 92 1014.4
20260903045133 64 232 4.0 8.0 0.00 0.04 0.00 92 1014.5
20260903044624 64 198 5.0 10.0 0.00 0.04 0.00 92 1014.4
20260903044135 64 209 4.0 10.0 0.00 0.04 0.00 91 1014.5
20260903043618 64 198 5.0 10.0 0.00 0.04 0.00 91 1014.5
20260903043128 64 225 4.0 8.0 0.00 0.04 0.00 91 1014.4
20260903042631 64 239 4.0 8.0 0.00 0.04 0.00 91 1014.5
20260903042113 64 201 4.0 8.0 0.00 0.04 0.00 91 1014.3
20260903041612 64 201 4.0 7.0 0.00 0.04 0.00 92 1014.3
20260903041135 64 233 5.0 8.0 0.00 0.04 0.00 92 1014.4
20260903040614 64 192 5.0 10.0 0.00 0.04 0.00 92 1014.3
20260903040122 64 234 5.0 10.0 0.00 0.04 0.00 92 1014.4
20260903035615 64 244 4.0 13.0 0.00 0.04 0.00 92 1014.4
20260903035122 64 205 6.0 13.0 0.00 0.04 0.00 92 1014.5
20260903034629 64 194 4.0 12.0 0.00 0.04 0.00 92 1014.6
20260903034111 64 223 4.0 7.0 0.00 0.04 0.00 92 1014.8
20260903033637 64 221 4.0 9.0 0.00 0.04 0.00 92 1014.7
20260903033124 64 219 4.0 9.0 0.00 0.04 0.00 92 1014.9
20260903032620 64 228 3.0 9.0 0.00 0.04 0.00 92 1015.0
20260903032130 63 213 3.0 8.0 0.00 0.04 0.00 92 1015.1
20260903031629 63 237 4.0 8.0 0.00 0.04 0.00 92 1015.0
20260903031113 63 225 4.0 9.0 0.00 0.04 0.00 92 1014.9
20260903030617 63 254 2.0 8.0 0.00 0.04 0.00 92 1014.9
20260903030117 63 193 4.0 7.0 0.00 0.04 0.00 92 1015.0
20260903025653 63 198 4.0 7.0 0.00 0.04 0.00 91 1015.0
20260903025116 63 229 3.0 7.0 0.00 0.04 0.00 91 1014.9
20260903024636 63 204 5.0 8.0 0.00 0.04 0.00 90 1014.9
20260903024119 63 176 4.0 10.0 0.00 0.04 0.00 90 1014.9
20260903023611 63 230 5.0 10.0 0.00 0.04 0.00 89 1015.0
20260903023121 64 232 4.0 9.0 0.00 0.04 0.00 88 1015.3
20260903022631 64 217 6.0 11.0 0.00 0.04 0.00 86 1015.3
20260903022113 65 202 4.0 13.0 0.00 0.04 0.00 84 1015.4
20260903021617 65 192 4.0 13.0 0.00 0.04 0.00 82 1015.4
20260903021125 65 188 5.0 13.0 0.00 0.04 0.00 80 1015.4
20260903020639 65 215 4.0 10.0 0.00 0.04 0.00 80 1015.4
20260903020123 65 241 5.0 10.0 0.00 0.04 0.00 80 1015.4
20260903015615 65 210 5.0 11.0 0.00 0.04 0.00 80 1015.3
20260903015112 65 226 5.0 11.0 0.00 0.04 0.00 80 1015.4
20260903014629 65 201 4.0 11.0 0.00 0.04 0.00 80 1015.3
20260903014115 66 217 5.0 10.0 0.00 0.04 0.00 79 1015.3
20260903013618 66 216 5.0 11.0 0.00 0.04 0.00 79 1015.5
20260903013128 65 239 6.0 11.0 0.00 0.04 0.00 79 1015.7
20260903012623 65 184 5.0 9.0 0.00 0.04 0.00 79 1015.8
20260903012128 65 277 5.0 9.0 0.00 0.04 0.00 79 1015.6
20260903011618 65 200 5.0 10.0 0.00 0.04 0.00 78 1015.6
20260903011141 65 241 5.0 12.0 0.00 0.04 0.00 78 1015.5
20260903010625 65 215 5.0 10.0 0.00 0.04 0.00 78 1015.6
20260903010114 65 193 5.0 10.0 0.00 0.04 0.00 78 1015.7
20260903005647 65 188 4.0 10.0 0.00 0.04 0.00 78 1016.0
20260903005121 65 227 3.0 12.0 0.00 0.04 0.00 78 1016.0
20260903004625 65 216 4.0 13.0 0.00 0.04 0.00 78 1016.1
20260903004143 65 211 3.0 13.0 0.00 0.04 0.00 78 1016.1
20260903003658 65 226 2.0 13.0 0.00 0.04 0.00 78 1016.1
20260903003124 65 201 4.0 13.0 0.00 0.04 0.00 77 1016.1
20260903002650 65 181 6.0 14.0 0.00 0.04 0.00 77 1016.3
20260903002141 65 223 4.0 14.0 0.00 0.04 0.00 77 1016.4
20260903001614 65 200 5.0 11.0 0.00 0.04 0.00 77 1016.3
20260903001141 65 189 5.0 12.0 0.00 0.04 0.00 77 1016.4
20260903000629 65 203 5.0 12.0 0.00 0.04 0.00 77 1016.5
20260903000129 65 212 6.0 12.0 0.00 0.04 0.00 77 1016.4
20260902235642 65 225 7.0 11.0 0.00 0.04 0.00 78 1016.4
20260902235127 64 206 5.0 8.0 0.00 0.04 0.00 78 1016.4
20260902234615 64 157 3.0 7.0 0.00 0.04 0.00 79 1016.5
20260902234120 64 186 4.0 8.0 0.00 0.04 0.00 79 1016.6
20260902233632 64 184 3.0 9.0 0.00 0.04 0.00 79 1016.6
20260902233149 64 225 3.0 9.0 0.00 0.04 0.00 79 1016.6
20260902232632 64 196 3.0 9.0 0.00 0.04 0.00 79 1016.6
20260902232135 64 192 3.0 10.0 0.00 0.04 0.00 79 1016.8
20260902231623 64 209 3.0 13.0 0.00 0.04 0.00 79 1016.8
20260902231133 64 201 7.0 13.0 0.00 0.04 0.00 79 1016.9
20260902230639 64 205 4.0 10.0 0.00 0.04 0.00 79 1016.9
20260902230123 64 217 4.0 8.0 0.00 0.04 0.00 79 1017.0
20260902225638 64 227 3.0 9.0 0.00 0.04 0.00 80 1017.1
20260902225124 64 207 4.0 9.0 0.00 0.04 0.00 79 1017.0
20260902224611 64 253 4.0 7.0 0.00 0.04 0.00 79 1017.1
20260902224113 64 212 4.0 7.0 0.00 0.04 0.00 79 1017.1
20260902223622 64 212 4.0 7.0 0.00 0.04 0.00 79 1017.1
20260902223123 64 182 4.0 8.0 0.00 0.04 0.00 79 1017.2
20260902222628 64 185 3.0 11.0 0.00 0.04 0.00 78 1017.2
20260902222118 64 198 4.0 11.0 0.00 0.04 0.00 78 1017.3
20260902221622 65 223 5.0 8.0 0.00 0.04 0.00 78 1017.3
20260902221127 65 217 4.0 12.0 0.00 0.04 0.00 78 1017.5
20260902220611 65 194 5.0 12.0 0.00 0.04 0.00 79 1017.4
20260902220131 65 207 4.0 8.0 0.00 0.04 0.00 79 1017.6
20260902215614 65 156 6.0 9.0 0.00 0.04 0.01 80 1017.6
20260902215124 64 200 5.0 10.0 0.00 0.04 0.01 81 1017.6
20260902214634 64 240 6.0 11.0 0.00 0.04 0.01 82 1017.6
20260902214131 64 200 4.0 11.0 0.00 0.04 0.01 84 1017.4
20260902213632 64 219 3.0 8.0 0.00 0.04 0.01 85 1017.5
20260902213126 64 164 4.0 8.0 0.00 0.04 0.01 85 1017.5
20260902212636 64 227 4.0 8.0 0.00 0.04 0.01 85 1017.5
20260902212113 64 206 4.0 8.0 0.00 0.04 0.01 86 1017.5
20260902211621 64 215 3.0 7.0 0.00 0.04 0.01 86 1017.6
20260902211135 64 213 3.0 8.0 0.00 0.04 0.01 87 1017.5
20260902210628 64 167 2.0 8.0 0.00 0.04 0.01 87 1017.6
20260902210114 64 184 4.0 7.0 0.00 0.04 0.01 88 1017.6
20260902205621 64 205 3.0 6.0 0.00 0.04 0.01 88 1017.7
20260902205131 64 239 3.0 6.0 0.00 0.04 0.01 88 1017.7
20260902204622 64 201 2.0 6.0 0.00 0.04 0.01 88 1017.5
20260902204116 64 173 2.0 6.0 0.00 0.04 0.01 88 1017.6
20260902203654 64 219 2.0 5.0 0.00 0.04 0.01 88 1017.7
20260902203114 64 171 2.0 5.0 0.00 0.04 0.01 88 1017.7
20260902202621 64 196 2.0 4.0 0.00 0.04 0.01 88 1017.8
20260902202141 64 173 2.0 5.0 0.00 0.04 0.01 87 1017.8
20260902201654 64 157 2.0 5.0 0.00 0.04 0.01 87 1017.9
20260902201129 64 171 1.0 4.0 0.00 0.04 0.01 86 1017.9
20260902200633 64 194 2.0 5.0 0.04 0.04 0.01 86 1018.1
20260902200109 64 241 3.0 5.0 0.04 0.04 0.01 87 1018.1
20260902195622 64 178 2.0 5.0 0.04 0.04 0.01 87 1018.1
20260902195124 64 211 2.0 6.0 0.04 0.04 0.01 88 1018.1
20260902194619 64 219 3.0 6.0 0.04 0.04 0.01 88 1018.1
20260902194121 64 196 2.0 3.0 0.04 0.04 0.01 88 1018.2
20260902193617 64 207 1.0 4.0 0.04 0.04 0.01 88 1018.2
20260902193124 64 224 2.0 7.0 0.04 0.04 0.01 88 1018.3
20260902192619 64 213 2.0 7.0 0.04 0.04 0.01 87 1018.2
20260902192116 64 238 4.0 8.0 0.04 0.04 0.01 86 1018.2
20260902191639 64 219 3.0 10.0 0.04 0.04 0.01 85 1018.3
20260902191115 65 204 4.0 13.0 0.04 0.04 0.01 83 1018.3
20260902190634 66 201 7.0 13.0 0.00 0.00 0.00 81 1018.6
20260902190121 66 167 4.0 6.0 0.00 0.00 0.00 78 1018.4
20260902185622 66 225 2.0 5.0 0.00 0.00 0.00 77 1018.3
20260902185144 66 189 1.0 5.0 0.00 0.00 0.00 76 1018.2
20260902184638 66 211 4.0 8.0 0.00 0.00 0.00 76 1018.3
20260902184120 67 204 3.0 8.0 0.00 0.00 0.00 75 1018.3
20260902183612 67 209 3.0 6.0 0.00 0.00 0.00 75 1018.2
20260902183150 67 242 2.0 7.0 0.00 0.00 0.00 75 1018.2
20260902182621 67 219 4.0 9.0 0.00 0.00 0.00 75 1018.2
20260902182119 67 266 4.0 10.0 0.00 0.00 0.00 76 1018.2
20260902181617 67 323 1.0 10.0 0.00 0.00 0.00 76 1018.2
20260902181121 67 234 2.0 7.0 0.00 0.00 0.00 76 1018.3
20260902180638 67 207 3.0 7.0 0.00 0.00 0.00 77 1018.3
20260902180133 67 182 3.0 8.0 0.00 0.00 0.00 76 1018.4
20260902175617 67 209 4.0 8.0 0.00 0.00 0.00 75 1018.5
20260902175117 67 188 2.0 7.0 0.00 0.00 0.00 75 1018.4
20260902174637 67 304 1.0 8.0 0.00 0.00 0.00 75 1018.4
20260902174119 67 209 3.0 8.0 0.00 0.00 0.00 74 1018.4
20260902173619 67 180 3.0 9.0 0.00 0.00 0.00 74 1018.4
20260902173119 67 228 3.0 10.0 0.00 0.00 0.00 73 1018.4
20260902172650 67 237 4.0 9.0 0.00 0.00 0.00 73 1018.4
20260902172131 67 236 4.0 9.0 0.00 0.00 0.00 74 1018.5
20260902171617 67 195 3.0 7.0 0.00 0.00 0.00 76 1018.4
20260902171124 67 207 2.0 8.0 0.00 0.00 0.00 76 1018.4
20260902170614 67 180 2.0 8.0 0.00 0.00 0.00 76 1018.4
20260902170123 67 196 3.0 8.0 0.00 0.00 0.00 75 1018.4
20260902165633 67 184 4.0 8.0 0.00 0.00 0.00 74 1018.4
20260902165125 68 186 2.0 10.0 0.00 0.00 0.00 74 1018.5
20260902164621 68 202 4.0 12.0 0.00 0.00 0.00 73 1018.5
20260902164125 68 227 3.0 12.0 0.00 0.00 0.00 73 1018.5
20260902163628 68 182 4.0 8.0 0.00 0.00 0.00 72 1018.4
20260902163108 68 206 3.0 8.0 0.00 0.00 0.00 72 1018.4
20260902162643 68 200 2.0 8.0 0.00 0.00 0.00 72 1018.4
20260902162158 68 211 4.0 8.0 0.00 0.00 0.00 72 1018.5
20260902161632 68 223 2.0 5.0 0.00 0.00 0.00 73 1018.5
20260902161138 68 232 2.0 10.0 0.00 0.00 0.00 73 1018.6
20260902160637 68 192 4.0 10.0 0.00 0.00 0.00 71 1018.7
20260902160122 68 194 4.0 12.0 0.00 0.00 0.00 70 1018.7
20260902155637 68 230 4.0 12.0 0.00 0.00 0.00 70 1018.8
20260902155116 68 215 3.0 9.0 0.00 0.00 0.00 70 1018.8
20260902154622 68 223 3.0 9.0 0.00 0.00 0.00 71 1018.8
20260902154112 68 175 2.0 11.0 0.00 0.00 0.00 72 1018.9
20260902153616 68 198 5.0 11.0 0.00 0.00 0.00 71 1019.0
20260902153113 68 252 4.0 12.0 0.00 0.00 0.00 71 1018.9
20260902152625 68 221 4.0 12.0 0.00 0.00 0.00 72 1018.9
20260902152125 69 139 2.0 9.0 0.00 0.00 0.00 75 1018.9
20260902151613 69 290 3.0 9.0 0.00 0.00 0.00 73 1018.9
20260902151124 69 188 3.0 9.0 0.00 0.00 0.00 73 1018.9
20260902150610 69 182 3.0 11.0 0.00 0.00 0.00 71 1019.0
20260902150125 69 209 3.0 13.0 0.00 0.00 0.00 70 1019.0
20260902145641 69 218 4.0 13.0 0.00 0.00 0.00 69 1019.1
20260902145143 70 293 4.0 8.0 0.00 0.00 0.00 70 1019.0
20260902144620 70 179 5.0 7.0 0.00 0.00 0.00 68 1019.0
20260902144122 70 229 3.0 9.0 0.00 0.00 0.00 70 1019.0
20260902143637 71 240 4.0 9.0 0.00 0.00 0.00 69 1019.0
20260902143117 71 180 3.0 7.0 0.00 0.00 0.00 69 1019.0
20260902142626 71 205 3.0 9.0 0.00 0.00 0.00 68 1019.0
20260902142115 71 137 3.0 16.0 0.00 0.00 0.00 67 1019.0
20260902141632 71 253 3.0 16.0 0.00 0.00 0.00 69 1019.0
20260902141126 71 294 3.0 10.0 0.00 0.00 0.00 69 1019.0
20260902140638 71 295 1.0 10.0 0.00 0.00 0.00 69 1018.9
20260902140106 72 278 4.0 8.0 0.00 0.00 0.00 66 1018.9
20260902135638 73 211 3.0 8.0 0.00 0.00 0.00 66 1018.9
20260902135138 73 142 3.0 12.0 0.00 0.00 0.00 65 1018.9
20260902134632 73 239 3.0 12.0 0.00 0.00 0.00 65 1018.8
20260902134115 73 189 3.0 8.0 0.00 0.00 0.00 67 1018.8
20260902133615 72 175 3.0 7.0 0.00 0.00 0.00 66 1019.0
20260902133137 72 256 3.0 7.0 0.00 0.00 0.00 66 1019.0
20260902132629 72 244 3.0 9.0 0.00 0.00 0.00 66 1019.0
20260902132115 73 238 3.0 6.0 0.00 0.00 0.00 67 1019.0
20260902131620 73 268 3.0 10.0 0.00 0.00 0.00 66 1019.0
20260902131149 72 250 4.0 10.0 0.00 0.00 0.00 66 1019.0
20260902130622 71 331 3.0 8.0 0.00 0.00 0.00 69 1019.0
20260902130139 71 150 2.0 8.0 0.00 0.00 0.00 67 1019.0
20260902125621 71 228 3.0 7.0 0.00 0.00 0.00 68 1019.1
20260902125108 71 146 3.0 7.0 0.00 0.00 0.00 66 1019.1
20260902124613 72 59 2.0 8.0 0.00 0.00 0.00 68 1019.1
20260902124124 71 218 3.0 9.0 0.00 0.00 0.00 69 1019.0
20260902123632 71 171 3.0 8.0 0.00 0.00 0.00 66 1019.0
20260902123115 71 230 3.0 8.0 0.00 0.00 0.00 69 1019.0
20260902122618 71 149 3.0 7.0 0.00 0.00 0.00 69 1019.0
20260902122132 70 266 2.0 6.0 0.00 0.00 0.00 70 1019.1
20260902121642 70 178 2.0 6.0 0.00 0.00 0.00 69 1019.1
20260902121154 70 269 3.0 11.0 0.00 0.00 0.00 69 1019.1
20260902120625 69 263 3.0 10.0 0.00 0.00 0.00 72 1019.1
20260902120114 69 220 3.0 9.0 0.00 0.00 0.00 72 1019.1
20260902115640 70 194 2.0 9.0 0.00 0.00 0.00 73 1019.2
20260902115126 70 203 3.0 9.0 0.00 0.00 0.00 75 1019.3
20260902114633 69 184 2.0 9.0 0.00 0.00 0.00 75 1019.2
20260902114150 69 233 2.0 9.0 0.00 0.00 0.00 77 1019.2
20260902113618 69 271 2.0 8.0 0.00 0.00 0.00 77 1019.2
20260902113145 69 280 2.0 4.0 0.00 0.00 0.00 78 1019.3
20260902112631 68 209 1.0 6.0 0.00 0.00 0.00 79 1019.4
20260902112126 68 224 3.0 6.0 0.00 0.00 0.00 79 1019.4
20260902111641 68 200 2.0 5.0 0.00 0.00 0.00 80 1019.4
20260902111113 67 207 2.0 7.0 0.00 0.00 0.00 80 1019.5
20260902110645 67 196 2.0 6.0 0.00 0.00 0.00 80 1019.4
20260902110135 67 237 2.0 6.0 0.00 0.00 0.00 81 1019.5
20260902105622 67 287 1.0 6.0 0.00 0.00 0.00 80 1019.4
20260902105112 68 347 2.0 6.0 0.00 0.00 0.00 80 1019.3
20260902104643 68 306 2.0 6.0 0.00 0.00 0.00 79 1019.3
20260902104131 68 194 3.0 8.0 0.00 0.00 0.00 79 1019.3
20260902103642 68 205 3.0 8.0 0.00 0.00 0.00 79 1019.3
20260902103122 68 323 3.0 8.0 0.00 0.00 0.00 78 1019.2
20260902102620 69 205 4.0 9.0 0.00 0.00 0.00 76 1019.2
20260902102134 69 234 4.0 10.0 0.00 0.00 0.00 76 1019.3
20260902101647 70 187 4.0 12.0 0.00 0.00 0.00 76 1019.3
20260902101159 70 267 5.0 12.0 0.00 0.00 0.00 77 1019.3